Wind_Speed
1 3 4 5 5 4 4 5 6 6 5 5 5 2 2 4 5 3 1 8 8 3 5 6 7 8 8 10 16 20 16 11 10 11 13 12 12 13 15 13 11 10 10 10 9 8 6 5 5 7 9 9 9 11 15 18 21 22 18 18 23 24 18 15 18 21 22 23 26 28 26 21 16 19 22 20 19 18 15 16 17 15 15 14 13 14 16
4 5 6 7 8 6 6 8 7 6 5 6 5 3 2 7 7 5 7 12 8 4 5 6 8 11 15 20 25 28 26 20 14 9 9 10 9 10 13 14 13 12 11 10 9 7 7 6 5 6 9 10 9 8 10 13 18 23 23 20 21 23 20 16 16 17 19 20 22 23 23 20 20 23 23 21 22 21 18 15 14 14 15 14 14 16 17
4 4 6 8 7 6 6 8 9 8 8 8 7 5 5 7 6 4 8 12 7 6 8 9 14 20 25 27 27 26 25 24 22 16 9 5 5 6 10 10 12 14 13 12 10 8 8 7 5 5 5 7 7 6 5 8 12 18 22 22 22 24 24 23 23 22 22 21 21 21 20 19 21 21 20 20 21 19 18 16 14 12 11 12 13 15 16
3 3 5 6 6 7 8 8 10 9 8 7 6 5 6 4 4 4 8 9 3 7 8 10 17 23 26 24 23 23 24 24 23 21 16 12 8 5 8 10 10 12 13 13 12 10 8 5 3 2 2 3 5 7 6 7 8 10 12 15 18 20 20 22 24 24 23 21 21 20 18 18 20 19 19 20 18 15 13 13 13 12 11 11 12 13 13
3 3 4 6 6 6 4 4 6 4 4 9 8 8 10 7 4 4 5 4 1 5 6 8 12 16 19 21 23 24 24 24 25 24 22 20 15 11 11 12 14 15 15 14 12 10 7 4 1 0 1 1 3 6 8 9 9 9 8 9 11 13 14 16 16 16 16 17 18 19 18 19 19 17 15 16 16 15 14 13 12 11 11 11 12 12 12
3 4 3 6 4 1 3 5 3 2 9 14 12 8 9 9 6 5 4 2 1 4 5 6 8 12 16 21 25 28 27 28 28 27 25 24 21 18 16 16 17 18 18 17 16 14 11 7 3 1 1 1 0 2 5 7 7 7 7 9 12 13 14 15 15 16 18 20 21 22 21 18 15 12 12 13 13 13 12 11 10 9 10 11 11 12 12
2 2 5 4 2 4 5 2 3 8 13 16 15 10 9 9 7 6 6 4 5 7 9 8 8 14 21 26 29 29 29 28 28 27 25 23 20 18 17 15 14 16 15 15 14 15 15 12 8 5 3 2 2 2 4 4 3 3 5 7 10 13 15 16 15 15 18 19 19 19 18 16 14 13 13 13 13 13 12 11 10 10 10 11 11 12 12
2 1 4 3 5 3 3 1 2 6 7 8 10 10 9 8 5 5 5 5 8 10 14 14 7 10 17 28 29 27 25 24 25 27 26 23 19 17 19 18 12 8 10 13 13 12 13 12 10 8 7 5 2 2 4 4 3 2 3 6 9 11 13 14 13 13 16 17 17 17 17 16 15 14 13 14 14 14 15 14 13 13 12 11 12 12 13
3 4 3 2 3 1 2 3 2 1 2 1 4 6 3 5 5 6 5 5 9 11 15 19 12 3 9 18 21 23 23 20 19 21 21 21 19 17 19 20 17 12 10 9 9 8 8 6 6 5 7 5 3 1 1 3 5 4 4 6 8 9 11 12 12 12 14 14 14 14 15 13 11 10 11 11 11 12 12 11 11 10 10 9 9 10 12
3 5 3 2 3 4 3 4 5 4 3 2 6 7 3 5 7 8 7 5 9 11 14 20 18 9 6 7 11 19 22 18 16 16 15 16 18 18 17 17 16 16 15 12 10 9 9 6 4 6 7 7 6 4 3 2 3 5 4 4 8 10 11 12 11 11 13 13 12 12 12 10 8 7 7 7 8 9 9 9 9 8 8 8 10 12 12
3 5 4 3 3 5 4 5 8 11 11 4 5 7 3 5 9 10 10 9 11 12 14 18 18 12 5 2 8 18 21 17 16 16 14 15 16 17 17 17 15 15 16 16 14 13 12 12 13 14 13 11 11 10 7 6 5 4 3 2 4 7 9 10 10 11 12 12 11 10 10 9 8 7 6 6 7 8 8 8 9 10 10 10 11 13 14
2 4 4 1 2 2 3 5 8 13 13 5 5 4 1 5 10 13 13 13 14 14 16 17 13 6 3 5 11 18 19 16 16 16 15 16 17 17 18 17 16 16 15 15 15 15 15 14 14 15 13 11 12 13 13 12 12 10 8 6 3 2 4 6 7 9 10 10 9 9 9 9 9 8 8 9 9 9 8 7 9 10 11 12 13 13 14
2 3 3 1 1 0 4 6 10 14 9 5 5 3 3 3 11 15 16 15 14 15 15 14 8 4 7 9 13 15 15 15 16 16 15 16 17 19 19 19 18 18 17 16 15 15 15 15 15 15 14 12 11 11 12 16 18 18 16 13 9 7 7 6 6 8 9 9 9 9 10 11 11 10 10 11 11 10 10 11 12 13 13 14 14 14 15
3 2 3 2 1 2 6 6 11 13 5 3 2 3 4 9 11 13 14 14 13 14 13 12 10 11 12 13 14 15 16 17 18 19 20 20 20 20 21 20 19 20 20 20 18 17 16 16 16 16 16 14 13 13 14 15 17 18 18 18 16 14 13 13 11 11 10 11 10 10 11 11 11 11 11 12 13 13 14 15 16 16 16 15 15 16 17
2 2 3 3 1 5 7 5 9 10 4 3 2 4 8 12 12 12 13 12 12 13 13 12 13 14 15 16 17 18 19 19 20 22 24 25 26 25 25 24 22 20 21 21 21 20 19 18 18 18 18 18 17 17 18 18 17 17 19 21 21 18 15 14 14 13 14 15 14 13 12 11 11 12 11 11 13 14 16 17 18 19 19 19 19 19 19
2 2 2 2 2 7 11 10 6 5 7 7 8 8 9 12 12 12 12 11 11 11 11 13 15 15 17 18 18 20 21 21 22 23 24 25 27 27 27 27 26 25 25 25 24 23 22 21 20 19 19 19 21 22 22 21 20 20 21 21 22 21 19 18 17 16 16 17 17 16 16 15 15 14 13 13 14 14 15 16 18 20 21 22 22 21 20
4 3 2 5 8 13 19 19 13 11 12 11 10 10 10 11 10 10 10 9 10 11 11 13 14 15 17 19 19 20 21 21 22 22 23 24 25 26 26 27 27 29 30 30 30 29 27 25 24 21 17 16 18 20 22 23 24 24 24 24 23 22 19 18 18 18 18 18 18 18 19 19 20 19 18 19 19 18 17 17 18 20 21 23 24 23 21
6 6 7 8 11 13 15 16 14 14 13 10 9 9 8 8 7 7 8 8 10 12 12 14 16 16 18 20 21 21 22 22 23 24 25 25 25 26 26 26 26 28 29 31 32 33 32 31 30 28 22 18 16 16 16 18 21 22 25 27 27 26 24 22 21 21 21 21 21 20 20 21 22 22 22 22 21 20 21 21 21 21 22 23 24 24 23
4 3 4 3 6 10 12 12 12 13 12 9 8 8 7 6 5 6 8 10 11 13 14 15 17 19 19 21 22 22 23 24 25 25 27 28 28 28 28 28 27 27 28 30 31 32 33 33 32 32 30 27 24 21 18 15 15 16 18 20 21 22 23 23 22 21 21 22 21 20 20 21 22 22 22 22 21 21 21 20 20 20 20 22 25 25 23
3 4 2 3 3 7 10 13 11 11 11 9 7 7 7 6 6 7 9 11 12 14 14 15 17 18 19 20 21 23 23 24 25 26 27 28 28 28 28 28 28 28 29 30 31 32 33 33 31 32 32 32 31 29 26 23 19 18 17 16 15 16 17 18 18 16 17 19 19 19 20 21 22 22 21 20 21 22 22 22 21 19 18 20 23 22 20
3 2 3 7 2 3 6 13 11 9 10 9 7 7 7 6 6 8 10 11 13 13 14 14 16 18 18 19 20 22 23 25 27 29 30 31 31 31 31 30 29 29 30 31 32 33 33 32 31 31 32 33 33 32 31 30 27 25 24 22 20 18 17 17 18 17 17 17 18 19 19 21 22 22 20 19 19 19 21 22 20 18 17 18 19 18 19
1 3 2 4 2 3 7 12 11 9 9 8 7 8 9 8 10 11 12 13 14 13 12 13 14 16 18 19 21 24 27 29 31 32 32 33 33 33 33 33 34 34 34 34 33 34 34 33 32 32 33 33 34 33 32 32 32 31 31 29 28 26 24 21 20 20 19 18 18 18 18 18 20 21 21 20 19 18 18 19 19 19 18 18 18 18 18
3 4 4 1 1 4 6 8 8 8 8 9 10 11 12 12 13 13 13 14 15 14 12 12 13 16 19 22 25 28 30 30 30 30 30 30 31 31 31 32 34 35 36 36 37 36 35 33 33 33 33 33 34 34 32 31 31 32 34 34 34 33 31 29 26 22 19 19 19 20 20 19 19 20 20 20 17 16 16 18 19 19 18 17 17 18 17
3 2 1 0 1 2 3 5 6 8 10 12 12 13 13 14 13 13 13 14 14 13 13 14 16 19 22 24 25 27 29 29 29 30 30 31 31 32 31 30 30 31 32 33 33 34 34 32 32 33 34 35 34 34 33 33 32 32 32 34 35 34 34 33 31 27 22 18 17 18 20 20 20 20 19 18 16 16 17 19 19 19 17 16 16 16 15
3 2 0 2 3 3 5 7 8 9 12 13 14 14 13 12 12 12 12 12 12 13 16 19 20 21 22 23 24 26 27 29 29 30 31 31 31 30 29 28 28 28 28 29 30 31 32 32 32 33 35 36 36 35 35 35 34 34 33 33 33 34 34 33 33 31 27 23 20 18 18 19 20 20 19 18 19 20 20 19 18 17 16 16 15 14 13
1 1 5 6 6 6 8 9 9 11 13 14 13 13 12 11 11 11 11 12 13 15 18 19 19 19 20 23 25 25 25 27 28 29 30 30 29 27 27 27 26 25 26 27 27 29 30 32 34 36 37 38 38 37 37 38 38 38 38 37 36 35 34 33 33 33 31 29 27 24 21 21 21 21 21 21 21 20 19 18 18 18 17 15 14 13 13
1 4 6 5 5 6 9 10 11 11 11 10 9 9 10 9 9 10 10 11 13 14 16 16 17 19 21 23 24 24 25 27 29 29 28 28 28 28 28 28 28 26 24 24 24 26 28 30 33 37 39 40 39 38 39 40 41 41 41 40 39 38 36 34 33 32 30 30 29 27 24 23 23 22 22 22 21 20 19 19 19 19 17 16 15 15 14
0 3 4 4 5 7 8 9 9 8 6 5 6 7 7 7 8 8 9 11 13 15 17 17 16 18 21 23 23 24 26 28 28 27 26 26 27 27 26 27 27 26 23 22 22 23 24 24 26 29 31 31 31 32 33 35 37 39 40 40 40 39 38 36 35 33 30 28 28 27 26 25 24 24 23 22 20 20 19 18 18 17 17 17 18 17 17
3 3 5 6 7 7 7 7 5 4 3 5 6 6 6 7 9 9 9 12 16 19 19 17 15 16 20 22 23 24 25 26 25 25 25 25 23 21 20 22 21 18 15 15 15 16 16 17 18 20 22 22 22 24 25 27 29 32 34 35 37 38 38 37 35 33 32 31 29 27 26 26 25 24 22 21 20 20 19 18 17 18 19 21 22 22 22
5 5 6 7 6 6 6 5 2 2 3 5 5 5 6 8 9 10 11 14 15 16 16 15 14 16 20 22 23 23 23 22 22 22 22 21 18 15 14 14 11 7 6 7 8 9 10 12 13 16 18 19 21 22 24 26 28 29 29 30 31 33 35 35 32 30 30 32 31 29 28 28 26 23 22 22 21 20 19 18 19 20 22 24 25 25 24
6 7 6 6 5 6 5 3 4 3 4 6 5 6 6 6 7 9 12 14 14 15 18 18 16 17 21 23 22 21 20 19 18 19 18 15 12 8 6 6 7 9 10 11 12 12 12 12 12 13 14 16 18 20 22 24 25 26 27 27 26 26 27 29 30 27 25 27 31 31 30 28 25 24 25 24 22 21 20 21 23 24 25 26 25 23 21
6 7 5 5 5 5 4 4 5 4 5 6 5 5 4 5 6 9 12 14 16 17 20 20 18 17 21 23 21 19 18 16 14 13 12 9 5 3 6 10 13 15 16 16 16 17 17 17 17 17 16 14 14 15 16 16 16 17 20 22 24 23 21 23 27 28 25 25 28 30 30 28 26 26 26 24 21 21 22 24 26 27 26 24 22 19 16
7 7 7 6 6 5 5 5 5 4 4 5 5 4 4 6 8 9 11 14 16 17 19 22 20 18 20 22 21 18 15 13 9 7 6 3 1 6 11 14 16 17 17 17 18 20 21 22 22 22 21 18 14 11 9 7 6 8 9 11 14 17 17 19 24 27 26 27 29 31 31 30 29 26 22 20 20 22 26 28 27 26 24 21 19 17 16
8 7 6 5 5 6 7 5 3 3 4 4 4 5 5 7 9 10 11 14 16 16 18 21 20 17 18 22 21 17 13 11 10 8 5 3 5 10 14 16 16 16 16 17 17 19 22 24 25 25 26 24 19 14 10 5 3 5 8 10 10 12 16 19 23 25 25 26 29 30 28 27 25 22 20 21 25 28 29 28 25 24 23 21 19 18 17
6 5 4 2 4 6 6 4 3 3 4 4 5 5 6 7 9 9 10 12 14 15 17 19 18 16 17 20 21 17 13 12 11 10 9 9 11 14 15 15 14 14 16 17 18 20 22 24 26 27 29 28 25 20 13 7 6 9 12 14 15 16 18 19 22 23 21 19 22 24 23 23 23 23 24 28 30 29 27 25 23 23 23 20 18 17 16
4 4 5 5 6 6 5 4 4 3 4 6 6 5 5 7 8 8 8 10 11 12 15 17 16 14 16 19 20 18 14 12 13 13 14 15 17 17 16 13 12 13 15 16 19 21 22 23 25 27 29 30 30 26 21 15 11 10 13 16 17 19 19 19 20 20 19 18 21 23 23 24 25 27 28 29 28 25 24 24 22 21 20 18 16 15 14
4 6 8 7 7 7 6 4 3 3 3 5 5 4 5 7 8 7 7 8 8 9 12 13 13 13 15 17 17 17 15 15 16 17 19 20 21 20 16 13 12 13 15 16 18 21 22 22 23 25 29 32 34 33 30 27 23 20 18 19 19 19 20 20 21 21 20 20 21 22 23 24 25 26 26 25 23 23 23 23 20 18 18 17 16 15 13
5 8 9 7 6 6 5 2 2 2 2 3 3 5 7 8 8 8 8 6 5 6 9 11 11 11 13 15 16 16 16 17 18 20 21 21 21 21 19 17 17 17 16 15 16 18 19 20 21 23 27 30 33 34 35 35 35 35 33 31 30 29 28 28 27 26 26 26 26 25 26 26 26 26 24 22 22 22 21 19 18 17 17 16 16 15 13
5 8 9 8 7 6 5 3 2 2 1 2 4 6 8 8 8 9 8 5 3 4 7 10 10 9 10 14 16 16 16 16 17 20 22 22 21 20 20 20 20 19 17 15 15 16 17 17 19 22 24 26 27 28 29 31 34 36 37 36 36 35 34 32 30 28 27 27 27 26 26 25 24 23 22 21 21 20 18 16 16 16 15 14 14 14 14
5 7 8 8 7 7 6 4 3 2 1 2 5 6 8 8 8 8 7 5 3 3 5 9 11 10 9 11 13 15 15 14 15 18 20 21 20 20 20 19 18 16 15 14 14 14 15 16 18 19 21 23 24 25 25 26 28 29 30 31 31 30 29 27 26 25 25 25 25 25 24 23 22 21 19 19 18 17 15 14 14 15 14 13 14 14 14
5 6 7 7 7 7 7 5 5 4 2 3 4 6 8 8 7 7 7 6 4 3 4 7 11 11 10 9 10 12 13 14 14 15 17 19 20 20 20 19 17 14 13 13 14 14 14 15 16 17 17 18 20 21 22 23 24 25 26 26 26 25 24 24 23 22 22 22 21 20 20 18 18 17 17 16 16 16 15 15 15 15 14 14 14 14 14
7 7 8 8 7 7 6 6 6 6 4 3 5 6 7 7 7 7 7 6 5 4 3 6 9 11 10 8 7 9 11 13 13 14 15 17 18 18 17 16 15 13 12 12 13 14 15 15 15 14 14 14 14 15 16 17 18 20 21 21 21 20 20 20 19 19 18 18 17 17 16 15 15 16 16 16 16 16 15 15 15 14 14 14 14 14 13
8 9 10 10 9 8 8 7 6 7 7 5 5 6 5 6 7 7 6 6 5 5 4 5 7 9 9 8 7 8 9 10 11 12 14 15 15 15 14 13 12 12 12 12 12 14 16 15 13 12 11 10 10 11 12 13 14 14 15 16 15 14 14 14 14 15 15 15 15 15 15 15 15 15 16 16 16 16 15 14 14 14 14 13 13 13 12
8 10 11 12 11 9 8 9 7 6 7 7 5 5 5 5 6 5 4 5 7 6 6 6 7 8 10 9 9 9 9 9 9 10 10 11 12 13 12 11 10 11 11 12 12 13 14 13 11 10 9 8 8 8 9 10 10 10 10 10 9 9 10 10 11 12 12 13 14 14 14 14 14 14 14 13 13 13 13 13 13 13 12 12 11 11 11
10 10 10 12 13 12 10 10 9 6 6 7 6 5 4 4 3 3 4 7 8 7 7 7 7 8 9 10 10 10 10 10 9 9 9 10 11 11 10 10 10 10 11 11 11 12 13 12 10 9 8 8 7 7 7 7 7 7 7 7 7 7 8 10 11 12 12 12 13 12 12 12 11 11 10 10 10 10 10 10 10 10 10 9 9 9 9
10 10 9 10 13 13 11 10 9 7 8 10 10 8 6 4 3 1 3 7 9 8 7 7 7 7 8 9 10 11 10 10 10 10 10 11 12 11 9 9 9 10 9 9 10 11 11 11 9 8 8 8 7 7 7 7 7 6 6 6 5 6 7 8 10 11 11 11 10 10 9 9 8 8 8 8 9 9 9 9 9 9 8 8 7 7 7
10 11 10 10 12 12 12 11 9 9 10 12 12 10 8 6 3 1 2 5 7 8 8 7 6 6 7 7 8 9 9 9 11 12 12 12 11 11 10 10 10 10 10 10 10 11 11 10 10 9 8 7 7 7 7 7 7 6 6 6 6 6 6 7 7 7 7 7 6 6 5 5 5 6 6 7 7 7 7 7 7 6 6 5 5 5 5
10 11 11 11 11 11 12 12 11 11 12 12 11 9 9 7 5 3 2 3 4 5 7 7 6 6 6 6 6 8 9 8 9 11 12 11 11 11 11 11 12 12 11 11 11 11 11 10 10 10 9 8 7 7 7 7 6 6 6 6 6 6 6 6 6 5 5 4 4 3 3 3 3 3 3 4 4 4 4 4 5 5 6 5 5 4 4
10 11 11 11 11 11 13 14 13 12 13 12 11 10 10 8 7 5 3 2 2 1 4 6 6 5 5 5 5 7 8 8 9 10 11 10 10 11 11 11 12 12 12 12 13 13 12 11 11 10 10 9 9 9 8 7 6 5 5 4 4 4 4 4 4 4 4 4 5 5 5 5 6 5 5 5 5 5 5 5 5 5 5 5 4 4 3
10 10 11 12 12 12 14 15 15 14 14 13 12 12 12 11 9 7 6 6 6 4 1 3 4 4 5 5 5 6 7 9 10 11 11 11 10 10 10 10 11 11 12 12 12 13 13 12 12 11 10 9 9 9 9 8 8 7 6 5 4 4 3 3 3 3 4 5 5 6 7 7 8 7 7 6 6 6 6 6 6 6 5 5 5 4 4
11 11 12 13 14 14 15 16 16 15 14 14 13 13 14 14 12 9 8 8 9 9 6 2 1 2 3 4 5 6 7 8 10 11 11 11 10 10 9 9 10 10 11 12 12 12 12 13 12 12 12 11 10 10 9 9 9 8 7 6 5 4 4 5 5 5 5 5 5 6 7 8 8 7 7 6 6 6 6 6 7 7 7 7 6 6 5
12 12 12 12 14 14 15 15 15 15 15 15 15 15 16 16 14 11 10 11 12 11 8 5 3 0 1 2 3 5 6 7 9 10 10 10 10 9 9 9 9 10 10 10 11 11 11 12 12 12 12 12 12 12 11 10 9 9 8 7 6 6 6 7 7 7 6 5 4 5 5 5 5 6 7 7 6 6 6 6 7 8 8 8 8 8 8
Wind_Direction
125 97 63 44 55 50 35 33 11 359 31 72 88 109 195 141 117 160 134 85 80 0 357 29 21 26 46 39 36 45 58 79 108 126 129 130 144 161 168 165 157 151 151 146 137 132 136 146 168 186 192 191 189 186 186 188 189 192 195 194 191 187 183 188 192 193 201 210 213 213 209 208 209 205 208 216 222 231 230 214 215 233 241 238 236 244 260
26 40 55 52 50 47 39 35 24 17 47 80 80 46 67 91 104 149 113 82 66 1 341 359 16 39 52 49 44 45 47 52 66 89 108 108 108 130 149 159 161 155 150 152 152 149 147 141 146 175 190 197 202 205 202 198 197 201 204 207 211 211 212 219 220 216 215 213 213 218 220 219 219 218 220 219 216 218 223 224 235 249 248 242 236 241 254
349 351 51 57 59 76 65 28 11 18 39 49 46 23 25 66 80 95 87 76 49 353 353 22 45 53 52 46 40 39 41 47 53 55 55 60 67 105 123 136 156 163 163 163 160 156 158 153 141 151 176 188 194 197 195 195 198 203 208 212 219 222 220 221 221 222 224 225 225 230 230 222 217 212 205 201 204 214 225 231 231 225 223 231 237 246 256
286 307 55 61 60 71 63 27 2 3 36 60 55 24 16 67 122 92 63 68 34 329 351 38 54 55 53 47 37 35 40 45 50 48 40 34 35 77 104 100 119 144 156 162 163 157 157 160 154 157 173 185 181 168 153 156 168 183 200 207 209 212 215 219 221 223 227 227 225 227 222 211 209 205 194 194 206 216 215 214 216 219 228 240 246 253 259
271 279 83 78 55 45 24 349 337 337 76 88 72 34 18 29 96 100 77 93 217 313 353 46 56 54 56 53 44 40 41 42 46 47 45 45 52 71 90 92 97 109 118 123 131 137 143 157 183 130 69 87 160 164 159 152 144 145 157 171 183 192 197 200 202 200 192 186 190 196 191 186 193 200 201 207 216 215 208 212 223 232 237 240 243 249 254
254 277 68 68 51 62 255 290 332 88 102 88 77 53 24 22 44 79 100 116 350 6 29 50 68 70 67 62 54 48 44 43 43 46 49 54 60 70 82 90 92 95 97 100 105 105 101 106 125 111 21 350 17 182 186 173 159 155 153 152 156 158 158 163 165 161 161 167 175 182 183 185 192 194 193 197 200 202 208 221 232 234 234 237 243 251 256
200 291 68 71 261 206 190 221 63 100 107 98 89 70 35 29 39 53 58 32 4 26 38 43 83 92 75 63 56 48 43 42 41 41 44 46 50 58 67 75 88 91 81 74 86 94 88 89 108 115 78 358 308 249 234 219 202 192 180 179 180 171 162 164 167 166 169 174 178 180 183 188 188 184 185 192 199 204 208 213 217 220 227 236 246 254 261
162 113 101 166 225 197 141 107 64 90 95 87 80 61 25 12 20 37 41 14 1 18 27 29 59 114 78 58 51 44 40 40 40 38 37 37 42 49 47 39 40 55 47 41 53 70 77 86 100 95 74 56 12 281 259 252 246 227 198 200 200 190 182 181 180 176 176 180 183 185 188 190 191 195 203 209 214 218 219 220 223 225 231 241 250 256 261
152 149 164 183 187 173 19 343 321 77 81 104 110 98 39 351 3 33 43 10 4 13 19 21 26 95 78 51 39 32 31 30 32 33 33 33 37 41 36 28 23 18 2 3 23 33 40 71 90 63 49 51 47 30 272 240 232 245 261 228 206 199 198 198 198 198 195 195 197 198 200 204 207 208 206 205 210 216 218 221 227 234 244 255 263 269 273
112 121 157 166 174 208 244 284 287 312 336 194 144 120 76 337 351 28 49 27 8 12 15 20 26 39 59 40 13 16 22 19 15 19 20 19 20 19 18 16 19 19 5 349 343 339 333 319 303 322 332 339 349 5 25 4 255 251 272 229 204 205 207 205 210 214 211 211 214 215 218 217 210 201 197 199 206 208 207 211 221 234 249 260 270 278 282
114 123 159 180 184 209 236 265 293 324 337 346 116 107 74 334 340 9 40 41 27 28 29 30 37 44 46 345 344 4 12 9 5 5 359 356 357 358 359 359 359 3 1 356 350 345 333 311 298 301 298 300 314 316 318 327 306 284 311 303 204 197 198 203 213 219 218 222 225 222 218 210 204 211 230 238 232 223 220 225 231 237 245 253 263 272 277
148 134 145 152 156 190 257 270 300 328 338 9 95 125 228 339 5 26 50 54 42 40 39 40 47 56 26 328 341 356 359 355 356 356 350 344 339 336 338 339 338 337 339 343 344 346 344 329 316 312 300 288 297 300 294 288 280 274 284 291 276 203 186 185 188 196 202 210 214 209 205 205 212 231 248 251 245 243 247 255 256 255 254 254 257 264 269
59 94 103 83 117 273 287 295 327 337 345 52 92 181 220 32 43 50 56 55 43 35 37 40 37 14 356 347 342 344 341 335 337 339 336 331 324 321 320 318 318 317 316 319 321 323 328 329 327 325 316 299 290 290 290 286 280 275 270 266 266 272 270 249 214 197 190 187 189 194 202 212 225 240 249 247 244 249 259 266 271 272 270 267 265 266 268
6 70 99 105 109 324 296 309 357 7 28 104 107 153 98 56 50 45 40 42 35 23 21 20 4 347 342 337 332 331 329 326 324 321 322 321 315 311 310 308 307 304 300 301 302 300 301 303 306 312 311 300 284 274 273 276 278 279 273 265 265 272 270 261 249 238 225 213 206 205 210 217 220 225 236 243 244 250 258 264 270 275 278 280 277 272 270
11 54 63 98 113 342 331 333 6 21 70 124 91 104 74 49 42 32 26 31 28 13 4 356 345 334 328 323 321 320 318 316 314 309 310 311 308 305 305 303 303 301 295 291 290 290 288 285 284 288 291 290 285 278 272 266 266 271 269 264 263 261 255 250 248 244 240 238 234 233 237 237 226 218 220 229 236 244 253 261 267 273 278 283 282 277 274
43 59 42 99 99 40 54 83 91 75 87 74 58 65 51 35 31 23 19 23 17 4 354 342 332 326 324 321 317 315 312 310 308 304 302 300 298 297 296 294 295 296 293 289 286 283 283 283 282 282 283 281 278 274 272 268 263 262 262 261 261 258 251 248 246 243 242 243 243 245 248 246 239 229 224 227 239 250 259 263 267 272 276 279 280 278 275
84 87 59 89 93 76 76 87 94 87 77 61 52 52 39 28 23 14 12 11 358 347 341 334 329 326 324 321 318 317 315 311 307 304 300 297 296 296 293 290 289 288 288 286 284 281 279 280 281 283 284 283 278 273 269 265 261 259 259 262 263 259 251 246 244 243 243 244 244 244 243 241 241 240 240 244 251 258 264 266 267 269 272 273 273 272 270
99 64 43 73 94 90 85 85 78 69 64 55 48 46 35 27 18 359 350 342 333 330 327 324 323 322 319 316 314 312 310 308 306 304 301 299 298 297 296 294 291 288 286 283 281 280 278 277 277 278 277 276 279 281 276 265 259 256 255 256 258 257 255 252 250 248 248 247 246 245 243 242 243 243 246 250 254 256 258 260 261 264 267 268 267 265 263
106 68 10 37 98 93 79 72 63 53 50 48 41 34 20 7 351 330 325 321 317 317 317 316 316 315 314 312 309 307 305 303 302 301 299 299 298 296 294 294 292 290 287 284 282 280 278 276 276 277 275 271 269 273 275 271 263 255 249 244 242 244 247 248 248 248 247 245 244 243 241 240 240 242 247 252 255 253 252 254 260 264 266 265 261 258 258
108 159 247 335 112 108 61 45 42 36 31 25 16 8 355 344 334 321 317 316 313 314 316 316 313 310 310 308 305 303 302 301 300 299 297 296 295 292 289 288 287 285 283 281 281 281 280 277 276 275 274 271 268 266 267 267 265 262 258 250 239 232 231 231 231 236 239 238 236 238 240 242 245 249 252 252 253 252 252 257 264 267 264 260 257 257 262
67 159 331 356 46 156 24 22 27 21 13 9 6 360 348 338 335 326 320 319 318 319 320 317 311 308 306 305 302 302 302 302 301 300 298 295 293 290 287 285 283 281 279 278 277 277 277 277 276 273 272 271 270 268 266 263 262 263 262 260 255 249 241 234 229 228 232 235 235 236 239 242 248 251 249 244 247 251 253 256 262 263 260 257 259 266 272
25 233 264 14 65 237 319 354 8 6 358 351 348 347 343 339 335 327 321 318 318 319 316 309 304 304 302 302 303 303 302 302 301 300 298 296 293 289 286 283 280 278 277 276 275 274 273 272 272 271 270 270 270 271 269 265 262 260 259 259 258 256 253 250 244 239 238 241 241 239 237 239 243 244 241 241 245 251 252 253 256 258 258 260 266 271 269
197 207 200 166 196 243 299 341 354 350 337 328 333 338 336 332 329 323 320 319 318 318 313 305 304 309 309 308 307 305 304 304 304 304 303 302 300 297 293 288 283 279 276 275 274 274 273 271 270 268 267 267 268 269 270 268 264 260 257 257 258 257 255 255 253 249 246 245 245 245 246 245 241 238 238 240 243 247 250 251 253 254 256 262 267 265 257
165 159 164 264 265 271 324 334 329 324 318 317 324 329 325 323 323 318 316 316 315 316 315 314 316 318 315 312 311 311 312 312 311 310 309 307 305 303 301 296 290 285 281 278 276 274 272 269 267 265 264 263 262 264 266 267 266 262 258 256 256 255 254 252 250 248 245 242 243 247 247 243 239 236 236 239 244 249 252 251 251 252 255 257 257 253 249
126 148 265 318 301 300 313 309 305 311 315 316 319 320 317 317 316 313 312 314 316 319 320 319 320 319 317 316 318 318 316 314 313 311 310 309 308 305 302 300 296 292 289 285 280 275 272 268 265 264 263 261 260 260 260 261 262 262 260 258 257 256 254 250 248 248 247 243 242 242 240 236 234 234 235 241 248 252 250 247 247 249 251 251 249 245 242
113 274 309 313 301 305 317 312 306 312 317 316 313 309 307 308 309 310 314 317 320 322 322 320 321 323 323 323 324 321 316 313 312 311 311 313 313 308 303 303 302 296 291 287 282 278 273 268 265 264 263 261 261 261 259 258 259 259 259 259 258 257 255 253 250 249 248 246 244 243 239 237 236 237 238 243 248 250 249 249 248 246 245 243 238 231 228
327 322 327 319 306 320 329 322 315 316 316 309 301 299 303 308 313 317 318 317 318 320 320 319 320 324 327 328 327 325 320 317 314 312 310 311 311 308 306 306 305 301 297 292 287 281 277 272 268 266 266 266 267 266 264 262 260 259 259 258 256 255 253 251 248 246 244 244 242 240 238 238 238 239 240 241 244 249 253 253 251 245 238 231 223 217 215
177 343 340 324 313 318 322 320 316 310 302 297 298 303 312 324 327 322 316 315 318 321 322 321 322 327 332 334 335 331 325 319 315 313 309 308 309 310 307 304 303 303 300 294 290 287 284 283 280 276 275 276 275 273 270 267 263 259 256 255 254 253 250 247 244 240 236 235 235 235 236 237 237 237 237 239 244 249 250 246 243 238 228 216 205 198 198
268 303 305 303 306 307 309 313 306 284 286 309 314 317 328 336 333 323 317 320 324 326 327 327 330 336 339 340 340 335 326 318 315 313 310 311 314 312 309 307 309 309 302 294 293 295 296 296 294 289 286 284 280 276 273 269 265 261 257 253 251 249 247 245 242 236 230 228 227 229 233 235 233 230 231 236 240 240 236 231 228 223 214 201 192 187 186
291 308 302 296 293 287 292 298 265 236 287 311 310 313 322 325 326 330 333 331 331 335 341 342 341 343 345 345 344 337 326 319 318 316 316 319 321 317 315 320 328 340 341 335 335 334 328 323 315 304 294 287 280 275 270 265 263 262 260 256 251 246 243 240 237 232 228 224 221 223 229 231 228 225 228 231 230 226 222 219 216 210 203 195 190 187 183
301 311 297 272 266 277 285 265 217 236 298 312 302 303 312 314 319 333 342 344 347 354 358 354 348 346 348 349 347 339 331 327 326 323 323 326 328 327 339 8 38 47 40 33 29 21 13 6 353 334 316 302 289 279 274 270 265 261 257 254 250 245 239 233 226 221 219 218 217 220 225 226 224 224 224 220 214 211 210 208 205 200 194 188 183 182 182
303 302 276 246 257 274 264 218 212 244 302 313 303 303 318 325 325 332 341 349 355 0 359 356 353 351 351 353 353 347 341 340 337 332 332 334 342 39 69 69 64 57 52 48 41 35 30 25 17 7 355 336 311 292 285 280 272 262 254 248 245 241 234 223 214 209 208 211 213 216 219 220 220 219 215 207 203 204 203 198 193 188 181 178 177 179 184
292 281 262 253 256 240 209 198 215 253 294 305 306 313 321 323 327 332 337 345 353 358 356 354 355 357 356 357 359 358 353 353 359 0 353 346 69 88 80 76 71 65 61 55 46 42 39 35 28 23 18 8 353 336 326 313 281 254 236 231 235 232 219 204 198 197 201 209 212 212 213 213 208 205 201 195 193 194 191 186 181 176 171 171 173 172 172
290 281 272 267 240 207 192 193 228 268 289 300 309 316 314 317 327 332 335 341 350 355 353 351 354 -0 1 1 4 8 10 17 30 38 35 53 90 89 84 82 79 73 68 61 51 45 43 41 38 35 31 27 22 15 10 24 99 145 153 157 170 181 180 180 184 191 202 211 209 203 201 199 194 189 190 189 186 183 180 176 171 167 165 164 163 162 164
292 278 258 208 174 181 191 209 249 280 302 313 316 317 320 327 334 335 335 340 346 351 350 349 352 2 9 8 10 18 31 43 52 59 68 79 87 90 91 91 88 80 73 64 53 46 44 43 43 43 42 40 40 39 40 59 104 123 131 137 143 150 157 168 179 187 195 201 194 186 186 187 184 182 181 178 175 172 168 164 163 164 163 162 161 162 167
283 244 211 181 171 186 207 227 246 271 306 319 318 318 327 333 334 335 337 340 341 345 348 349 352 4 17 19 20 28 45 62 72 76 79 81 84 88 93 95 89 80 73 63 56 53 50 46 45 48 51 52 54 56 60 72 94 119 134 138 140 145 151 160 170 177 181 183 181 179 178 176 173 171 168 164 161 160 160 161 164 167 167 167 170 173 176
228 193 189 194 202 209 215 230 249 265 308 327 323 320 330 333 330 329 332 333 334 342 351 356 359 8 19 26 31 40 54 70 80 83 80 78 81 87 92 92 80 69 64 61 58 57 56 52 49 51 57 62 64 66 70 78 90 103 116 125 131 139 146 150 154 158 159 159 159 157 154 152 151 152 151 151 154 159 163 164 165 167 170 175 181 186 190
200 187 193 212 224 215 209 226 271 269 303 336 328 322 330 334 332 332 335 336 336 350 4 10 11 13 24 34 42 50 59 70 80 85 83 79 79 82 82 78 68 60 58 62 62 59 58 57 56 57 62 68 71 72 74 79 86 92 97 101 105 109 114 117 119 121 123 125 128 132 135 138 141 143 145 150 157 162 163 163 164 168 174 181 186 191 198
199 197 207 219 220 208 201 206 238 249 286 323 314 322 335 338 337 343 352 1 3 9 21 27 26 26 33 39 44 51 58 65 74 81 82 80 79 78 77 75 71 65 62 64 66 63 60 59 61 64 67 71 74 75 75 77 81 85 89 93 96 99 103 106 108 111 116 122 128 134 138 141 144 147 151 157 161 162 163 165 168 172 175 180 186 193 199
208 206 214 219 215 203 200 213 235 248 307 307 295 314 337 344 342 348 2 19 26 18 28 36 38 38 40 42 46 52 58 63 70 78 82 83 83 80 78 76 74 71 66 62 64 68 68 64 64 68 72 75 77 79 79 79 80 83 86 89 92 95 99 103 109 117 124 130 134 139 142 144 146 149 152 156 160 163 167 169 170 173 176 180 187 194 200
225 208 206 213 214 207 206 226 245 249 278 311 302 314 334 345 348 353 1 16 33 39 40 46 45 42 40 44 51 57 63 67 71 75 80 82 81 79 74 69 67 68 66 60 60 66 71 71 69 70 74 79 82 83 82 82 83 86 89 90 90 91 92 96 103 113 121 128 133 136 139 142 143 146 150 156 162 167 171 173 173 176 179 182 186 192 199
236 223 215 217 221 218 216 229 241 236 236 281 321 327 330 339 352 360 1 11 33 55 63 58 53 48 45 51 60 64 67 68 69 70 74 76 76 76 73 68 65 67 69 67 66 67 67 68 71 74 77 81 84 85 84 83 84 88 91 91 89 88 90 93 100 108 115 122 128 133 139 144 148 151 156 163 168 173 177 179 180 182 184 187 191 196 202
235 230 227 230 234 229 216 212 225 233 234 254 308 333 334 339 352 1 5 17 39 61 71 67 62 59 56 60 69 74 73 71 68 67 69 71 73 75 74 68 63 63 65 68 70 71 68 67 67 70 75 80 85 88 89 88 89 93 96 96 94 91 91 95 103 113 121 130 137 144 152 157 159 162 166 170 173 177 182 185 188 191 193 197 202 206 210
234 231 230 233 241 242 224 208 215 233 236 244 279 318 328 332 345 3 29 44 52 61 63 58 62 66 65 66 73 79 79 76 73 72 73 76 77 75 72 67 62 59 60 61 65 70 71 70 68 68 70 73 78 86 91 94 96 99 101 101 101 99 99 105 115 124 131 139 146 153 160 164 167 170 174 177 179 182 188 193 198 202 205 209 213 217 221
241 242 238 234 239 247 236 216 214 233 243 245 262 291 305 317 341 23 67 65 59 60 59 54 56 64 67 68 72 76 78 80 81 79 77 77 76 71 67 62 56 53 55 59 64 67 68 69 70 73 76 76 79 84 90 93 96 101 103 105 108 109 111 119 130 138 142 147 152 157 163 168 170 172 176 181 186 192 196 200 205 210 213 216 222 227 232
251 254 250 240 240 244 236 218 215 236 248 243 244 255 267 283 305 356 83 73 64 61 59 54 53 59 64 68 71 75 78 83 86 82 75 72 73 72 66 59 53 50 52 58 64 67 69 69 69 72 76 78 82 88 93 95 97 99 102 108 116 119 121 128 136 143 148 152 156 160 165 173 180 186 193 200 205 208 212 218 222 225 226 225 228 230 229
252 253 253 249 247 244 234 223 225 240 242 233 230 237 250 260 260 226 119 85 69 60 58 58 58 60 63 68 74 76 74 74 78 79 76 72 72 74 72 65 60 58 57 59 64 66 67 70 73 74 74 74 76 83 91 99 104 108 111 115 117 121 124 129 135 141 147 152 157 164 172 181 188 195 202 207 209 213 217 221 222 219 211 203 201 202 203
251 250 251 254 254 247 237 231 231 234 235 232 231 240 249 245 229 200 148 101 74 57 54 59 65 67 67 71 78 79 74 68 70 76 77 73 70 71 70 65 63 63 63 64 67 67 66 67 71 74 74 75 77 82 88 92 96 102 113 119 119 122 126 128 127 130 133 132 129 128 128 127 132 142 156 163 168 168 165 162 163 164 162 161 164 172 181
253 248 248 251 251 243 236 233 231 228 228 231 235 240 240 231 215 205 199 180 162 58 38 47 61 73 78 78 81 83 84 81 78 78 78 73 66 63 62 60 60 61 62 65 68 70 69 69 70 73 75 77 79 81 85 88 89 94 106 117 118 118 119 118 118 117 115 111 108 106 103 103 105 105 104 106 109 109 112 120 128 134 138 140 141 140 143
253 250 247 247 245 239 233 232 232 231 230 231 232 233 233 229 221 217 219 215 212 223 303 26 56 78 90 94 95 95 97 96 91 86 84 80 74 67 62 59 59 59 58 60 64 68 70 71 72 73 76 79 80 80 81 83 85 88 93 103 116 125 123 109 96 87 84 90 100 104 102 99 97 93 88 87 88 89 93 100 104 103 102 104 105 104 105
249 252 249 245 244 241 236 233 232 232 232 231 229 230 233 235 232 227 224 219 217 221 236 269 9 84 101 110 113 110 106 104 99 93 88 84 80 75 69 64 62 61 59 58 60 63 66 68 69 70 71 74 77 77 77 77 78 81 82 86 95 111 118 113 107 103 99 98 100 100 96 94 93 93 92 93 90 82 77 79 86 86 80 72 69 69 69
251 253 251 246 244 243 241 239 238 236 233 230 229 230 233 234 230 223 219 220 220 224 238 257 271 293 96 121 129 124 116 110 105 100 96 91 85 80 75 70 67 66 64 61 60 62 64 66 66 67 67 69 70 72 72 73 73 76 79 82 84 88 92 96 99 103 107 105 96 86 81 81 81 82 82 81 77 69 64 69 80 85 80 71 65 62 58
Height
1473 1473 1473 1472 1474 1477 1479 1481 1482 1481 1479 1479 1480 1481 1483 1483 1486 1494 1497 1495 1497 1502 1500 1497 1496 1493 1491 1490 1487 1484 1483 1482 1483 1484 1485 1486 1486 1487 1487 1488 1489 1490 1490 1490 1490 1490 1491 1491 1492 1492 1493 1494 1494 1494 1494 1494 1495 1496 1497 1498 1499 1500 1501 1502 1502 1504 1507 1509 1510 1511 1512 1516 1521 1522 1523 1524 1526 1527 1527 1528 1529 1529 1530 1531 1532 1533 1532
1474 1472 1472 1473 1475 1478 1481 1486 1487 1484 1481 1483 1483 1484 1486 1485 1489 1496 1497 1496 1500 1504 1502 1500 1498 1496 1493 1490 1488 1486 1485 1485 1485 1485 1486 1488 1489 1490 1489 1489 1490 1491 1491 1491 1491 1491 1492 1493 1493 1493 1494 1494 1494 1494 1494 1495 1495 1496 1497 1498 1498 1499 1502 1504 1504 1505 1507 1507 1508 1511 1514 1516 1519 1521 1521 1521 1521 1523 1524 1525 1526 1526 1527 1528 1529 1530 1531
1477 1474 1473 1476 1478 1480 1483 1489 1490 1485 1484 1488 1490 1491 1491 1491 1496 1500 1497 1497 1502 1504 1503 1502 1499 1496 1493 1491 1491 1490 1489 1489 1487 1487 1488 1488 1490 1492 1492 1491 1491 1491 1491 1493 1493 1493 1494 1494 1494 1495 1495 1495 1495 1495 1495 1496 1496 1496 1496 1497 1497 1498 1500 1502 1503 1505 1506 1506 1507 1511 1515 1515 1516 1518 1519 1520 1520 1522 1522 1523 1524 1525 1526 1527 1527 1528 1529
1480 1477 1476 1478 1479 1479 1484 1491 1493 1490 1489 1494 1499 1502 1500 1497 1499 1498 1495 1501 1508 1507 1505 1503 1500 1497 1496 1496 1497 1496 1494 1492 1491 1490 1490 1490 1491 1493 1494 1493 1493 1493 1493 1494 1495 1496 1496 1496 1496 1496 1496 1496 1496 1496 1497 1497 1497 1497 1497 1497 1497 1498 1499 1501 1502 1503 1505 1506 1508 1511 1513 1514 1516 1517 1518 1519 1520 1521 1521 1522 1523 1524 1524 1525 1526 1526 1527
1482 1480 1478 1478 1478 1482 1489 1495 1497 1496 1496 1499 1503 1506 1505 1502 1501 1500 1501 1508 1511 1509 1506 1504 1503 1501 1501 1501 1501 1500 1498 1497 1495 1494 1494 1493 1493 1494 1494 1495 1495 1495 1496 1496 1497 1497 1498 1498 1498 1498 1498 1498 1498 1498 1499 1499 1499 1499 1499 1498 1498 1498 1499 1500 1501 1502 1504 1505 1507 1510 1512 1513 1515 1516 1517 1518 1518 1519 1520 1521 1521 1522 1523 1523 1523 1524 1524
1482 1482 1478 1479 1485 1492 1498 1500 1497 1497 1498 1501 1506 1511 1511 1508 1506 1507 1509 1511 1510 1509 1507 1506 1505 1505 1505 1505 1504 1503 1502 1500 1498 1497 1497 1497 1497 1497 1496 1496 1496 1496 1497 1497 1497 1497 1497 1498 1499 1500 1501 1501 1500 1500 1500 1500 1500 1500 1500 1500 1500 1500 1500 1501 1501 1503 1504 1506 1507 1509 1511 1512 1513 1514 1515 1516 1517 1518 1518 1519 1519 1520 1521 1521 1522 1522 1523
1482 1484 1482 1486 1493 1497 1500 1501 1499 1499 1500 1501 1506 1512 1513 1511 1511 1511 1511 1510 1509 1508 1508 1507 1507 1507 1506 1505 1504 1504 1504 1503 1502 1500 1500 1500 1501 1501 1500 1499 1498 1497 1497 1498 1497 1496 1496 1497 1498 1500 1501 1502 1502 1502 1501 1501 1501 1501 1501 1501 1501 1501 1501 1502 1502 1503 1504 1506 1507 1508 1509 1510 1511 1512 1513 1514 1515 1516 1517 1518 1518 1519 1519 1520 1520 1521 1521
1483 1486 1485 1489 1494 1496 1499 1501 1500 1499 1500 1500 1503 1510 1514 1513 1513 1513 1512 1511 1509 1508 1508 1507 1507 1507 1506 1504 1504 1506 1506 1505 1504 1504 1503 1502 1503 1504 1503 1503 1501 1499 1499 1499 1498 1497 1497 1498 1498 1499 1500 1501 1502 1502 1502 1502 1501 1501 1501 1501 1501 1501 1501 1502 1502 1503 1504 1505 1506 1507 1508 1509 1510 1511 1512 1513 1514 1515 1516 1516 1517 1518 1518 1519 1519 1519 1520
1482 1485 1486 1491 1495 1498 1501 1503 1501 1500 1501 1500 1501 1510 1517 1515 1513 1513 1513 1512 1510 1508 1507 1506 1505 1504 1503 1503 1506 1508 1508 1507 1507 1506 1505 1505 1505 1505 1504 1504 1504 1503 1502 1502 1500 1498 1498 1498 1499 1500 1500 1500 1500 1501 1502 1502 1502 1502 1501 1501 1501 1501 1501 1501 1502 1503 1503 1504 1505 1506 1507 1508 1509 1510 1510 1511 1512 1513 1514 1515 1516 1516 1517 1517 1517 1518 1518
1479 1482 1487 1491 1494 1497 1501 1504 1501 1499 1500 1499 1498 1506 1516 1515 1513 1514 1513 1512 1511 1509 1507 1506 1504 1502 1503 1507 1509 1509 1508 1509 1508 1507 1507 1506 1505 1505 1504 1504 1504 1504 1503 1503 1501 1500 1499 1499 1499 1500 1500 1499 1499 1499 1500 1501 1501 1502 1502 1501 1501 1500 1500 1501 1501 1502 1503 1503 1504 1505 1505 1507 1508 1508 1509 1510 1511 1512 1512 1513 1514 1514 1515 1516 1516 1517 1517
1477 1479 1481 1486 1492 1499 1504 1504 1500 1496 1497 1497 1496 1505 1516 1517 1513 1513 1512 1512 1512 1511 1509 1508 1505 1505 1509 1512 1511 1509 1509 1508 1508 1507 1507 1506 1505 1505 1505 1504 1504 1504 1504 1503 1502 1501 1501 1500 1500 1500 1499 1499 1498 1498 1499 1499 1500 1502 1503 1502 1501 1500 1500 1500 1500 1501 1502 1502 1503 1503 1504 1505 1506 1507 1508 1509 1510 1510 1511 1511 1512 1513 1514 1515 1515 1515 1516
1476 1477 1482 1492 1500 1505 1505 1502 1499 1496 1495 1493 1495 1506 1517 1517 1514 1513 1513 1513 1513 1512 1511 1510 1509 1511 1514 1514 1511 1509 1509 1508 1507 1507 1506 1505 1504 1504 1504 1504 1504 1503 1503 1503 1503 1503 1503 1503 1502 1502 1501 1501 1500 1499 1499 1499 1499 1500 1501 1501 1501 1500 1500 1500 1500 1500 1501 1502 1502 1503 1503 1504 1505 1506 1507 1508 1508 1509 1510 1510 1511 1511 1512 1513 1514 1514 1515
1478 1479 1490 1502 1507 1505 1502 1500 1499 1496 1493 1494 1501 1511 1516 1515 1514 1513 1513 1513 1514 1513 1512 1512 1512 1514 1514 1513 1511 1510 1508 1506 1506 1506 1505 1505 1504 1504 1503 1504 1503 1502 1502 1502 1502 1502 1503 1503 1503 1503 1504 1504 1503 1502 1501 1500 1500 1499 1499 1499 1500 1500 1500 1499 1499 1500 1500 1501 1501 1501 1502 1503 1504 1505 1505 1506 1507 1508 1508 1509 1509 1510 1511 1512 1512 1513 1513
1486 1486 1496 1506 1509 1505 1501 1500 1498 1495 1496 1502 1510 1514 1515 1513 1512 1512 1512 1512 1513 1512 1512 1512 1512 1512 1511 1510 1509 1508 1506 1505 1504 1503 1502 1502 1503 1503 1502 1502 1502 1501 1501 1500 1500 1500 1501 1501 1501 1501 1502 1502 1502 1502 1502 1501 1501 1500 1500 1499 1499 1499 1499 1498 1499 1499 1499 1500 1500 1500 1501 1501 1502 1503 1504 1505 1506 1506 1507 1507 1507 1508 1509 1510 1511 1511 1512
1494 1495 1501 1508 1511 1507 1501 1500 1501 1502 1505 1511 1513 1513 1513 1512 1511 1511 1511 1511 1511 1511 1511 1510 1510 1509 1508 1507 1506 1505 1504 1503 1502 1501 1500 1499 1499 1499 1499 1499 1499 1499 1498 1498 1498 1498 1498 1498 1498 1498 1498 1498 1499 1499 1499 1500 1500 1500 1500 1499 1499 1498 1498 1497 1497 1498 1498 1498 1499 1499 1499 1500 1500 1501 1502 1503 1504 1505 1505 1505 1505 1505 1507 1507 1508 1509 1509
1501 1505 1509 1511 1512 1508 1503 1503 1507 1509 1510 1512 1511 1511 1511 1511 1511 1510 1510 1510 1509 1509 1509 1508 1508 1507 1506 1504 1504 1503 1502 1501 1501 1500 1499 1498 1498 1497 1496 1496 1496 1495 1495 1495 1494 1494 1495 1495 1495 1495 1494 1494 1495 1495 1496 1496 1497 1497 1497 1497 1497 1496 1495 1495 1495 1496 1496 1496 1497 1497 1498 1498 1499 1499 1500 1501 1502 1503 1503 1503 1503 1504 1504 1505 1506 1507 1507
1505 1510 1511 1510 1510 1509 1507 1506 1509 1510 1511 1511 1511 1510 1511 1510 1510 1509 1509 1508 1508 1508 1507 1506 1506 1505 1503 1502 1501 1500 1499 1499 1498 1497 1497 1496 1495 1494 1494 1493 1493 1492 1491 1490 1490 1490 1490 1491 1491 1492 1491 1491 1490 1491 1491 1492 1492 1493 1493 1494 1493 1493 1492 1491 1492 1492 1493 1493 1494 1494 1495 1495 1496 1497 1498 1499 1500 1500 1501 1501 1501 1502 1502 1503 1504 1504 1505
1506 1509 1510 1510 1509 1510 1509 1508 1509 1509 1510 1510 1510 1510 1510 1509 1509 1508 1508 1507 1507 1506 1506 1505 1504 1503 1502 1500 1499 1498 1497 1496 1495 1494 1493 1493 1492 1491 1490 1490 1489 1489 1487 1486 1485 1484 1485 1486 1486 1487 1487 1487 1487 1486 1487 1487 1487 1487 1488 1488 1488 1489 1488 1488 1488 1489 1489 1489 1490 1491 1491 1492 1494 1495 1496 1497 1497 1498 1498 1499 1499 1499 1500 1501 1501 1502 1503
1505 1509 1511 1510 1508 1509 1508 1508 1508 1508 1509 1509 1509 1509 1509 1508 1508 1507 1507 1506 1506 1505 1504 1503 1502 1501 1500 1498 1496 1495 1494 1493 1492 1491 1490 1488 1488 1487 1486 1486 1485 1485 1483 1482 1481 1480 1479 1480 1481 1481 1482 1483 1483 1483 1483 1483 1483 1483 1483 1483 1483 1483 1483 1483 1484 1484 1485 1485 1486 1487 1488 1489 1491 1492 1493 1494 1495 1495 1496 1496 1496 1497 1497 1498 1499 1499 1500
1505 1509 1510 1508 1507 1508 1507 1507 1507 1507 1507 1508 1508 1507 1507 1507 1506 1506 1505 1505 1504 1503 1502 1501 1500 1498 1497 1496 1494 1492 1491 1490 1488 1487 1486 1485 1483 1483 1482 1481 1481 1480 1479 1478 1477 1476 1475 1475 1476 1476 1476 1477 1478 1478 1478 1479 1479 1479 1478 1478 1478 1478 1478 1479 1480 1480 1481 1482 1483 1484 1485 1486 1487 1489 1490 1491 1492 1492 1493 1493 1493 1494 1495 1495 1496 1497 1498
1507 1509 1508 1506 1506 1506 1505 1506 1506 1506 1506 1506 1506 1506 1506 1505 1504 1504 1503 1503 1502 1501 1500 1499 1497 1495 1494 1493 1491 1489 1488 1487 1486 1484 1483 1481 1480 1478 1477 1477 1476 1475 1474 1473 1472 1471 1470 1470 1471 1471 1470 1470 1471 1472 1473 1473 1474 1474 1474 1474 1474 1475 1475 1475 1476 1477 1477 1478 1479 1480 1481 1482 1484 1485 1486 1487 1488 1489 1489 1490 1491 1491 1492 1493 1494 1495 1496
1507 1508 1507 1506 1506 1505 1504 1505 1505 1505 1504 1504 1504 1504 1503 1502 1502 1501 1501 1500 1499 1498 1497 1496 1494 1493 1492 1490 1489 1487 1485 1484 1483 1481 1479 1477 1475 1473 1472 1471 1470 1469 1468 1468 1467 1466 1465 1465 1465 1465 1464 1465 1465 1466 1467 1467 1468 1469 1469 1470 1470 1471 1472 1472 1473 1473 1474 1475 1476 1476 1477 1479 1480 1481 1482 1484 1485 1486 1487 1487 1488 1489 1490 1491 1492 1493 1493
1505 1506 1506 1506 1506 1505 1505 1504 1504 1503 1503 1502 1502 1501 1501 1500 1500 1499 1498 1497 1496 1495 1494 1493 1492 1491 1490 1488 1486 1484 1482 1481 1479 1476 1475 1472 1470 1468 1467 1465 1464 1463 1462 1462 1461 1460 1459 1460 1459 1459 1458 1459 1459 1460 1461 1461 1462 1463 1463 1464 1465 1466 1467 1468 1469 1470 1471 1472 1472 1472 1473 1475 1476 1478 1479 1481 1482 1483 1484 1485 1486 1487 1487 1488 1489 1490 1491
1504 1504 1505 1505 1505 1504 1504 1503 1503 1502 1501 1500 1500 1500 1499 1498 1498 1497 1496 1495 1494 1493 1492 1491 1491 1490 1488 1486 1484 1481 1479 1477 1475 1472 1470 1468 1466 1464 1462 1460 1458 1457 1456 1455 1455 1454 1454 1453 1453 1452 1452 1452 1453 1454 1455 1456 1456 1457 1457 1458 1458 1460 1462 1463 1465 1467 1468 1468 1468 1469 1470 1471 1473 1475 1476 1478 1479 1480 1482 1483 1483 1484 1485 1486 1487 1488 1489
1503 1504 1504 1504 1504 1503 1503 1502 1502 1501 1500 1499 1499 1498 1498 1497 1496 1495 1494 1493 1493 1492 1491 1490 1489 1488 1486 1484 1481 1479 1476 1473 1471 1469 1466 1464 1462 1459 1457 1456 1454 1452 1451 1450 1449 1449 1448 1447 1447 1446 1445 1445 1446 1448 1449 1449 1450 1450 1451 1452 1453 1454 1456 1458 1460 1461 1463 1464 1465 1465 1467 1468 1470 1472 1473 1475 1476 1477 1479 1480 1481 1482 1482 1483 1484 1486 1487
1503 1503 1503 1503 1503 1502 1502 1501 1500 1499 1499 1498 1498 1497 1496 1496 1495 1494 1493 1493 1492 1491 1490 1489 1487 1486 1484 1481 1479 1476 1473 1471 1468 1466 1462 1460 1457 1455 1453 1452 1450 1448 1447 1446 1445 1444 1443 1442 1442 1441 1439 1439 1440 1441 1442 1442 1443 1443 1444 1445 1446 1448 1450 1452 1453 1456 1458 1459 1461 1462 1464 1466 1467 1469 1470 1472 1473 1474 1476 1477 1478 1479 1480 1481 1482 1483 1485
1502 1502 1502 1502 1501 1501 1500 1500 1499 1498 1498 1497 1497 1496 1496 1495 1495 1494 1493 1492 1491 1490 1489 1487 1485 1484 1482 1479 1476 1474 1471 1468 1465 1462 1460 1457 1454 1452 1450 1448 1446 1445 1443 1442 1440 1439 1438 1437 1436 1435 1433 1433 1434 1434 1434 1435 1435 1435 1436 1437 1439 1441 1443 1445 1447 1450 1452 1455 1456 1458 1460 1462 1464 1466 1467 1468 1470 1471 1473 1474 1476 1477 1477 1478 1480 1481 1482
1501 1501 1501 1500 1500 1500 1499 1499 1498 1497 1497 1497 1496 1496 1495 1495 1494 1493 1492 1491 1490 1489 1487 1486 1484 1482 1479 1477 1474 1471 1468 1465 1462 1459 1457 1454 1452 1449 1447 1445 1443 1441 1440 1438 1437 1436 1435 1434 1432 1430 1429 1428 1428 1428 1427 1427 1426 1426 1427 1429 1431 1433 1435 1438 1441 1444 1448 1450 1452 1454 1457 1459 1461 1462 1464 1465 1467 1469 1470 1472 1473 1474 1475 1476 1477 1479 1481
1500 1500 1500 1499 1499 1498 1498 1498 1497 1497 1497 1496 1496 1495 1495 1494 1493 1493 1492 1490 1489 1487 1485 1484 1482 1480 1478 1475 1472 1469 1466 1462 1459 1456 1454 1451 1449 1447 1445 1442 1440 1438 1437 1436 1435 1434 1433 1432 1430 1427 1425 1424 1423 1422 1421 1420 1419 1419 1420 1421 1423 1425 1428 1431 1435 1438 1442 1446 1448 1451 1453 1455 1457 1459 1461 1463 1464 1466 1468 1470 1471 1472 1473 1474 1475 1478 1480
1499 1499 1499 1498 1498 1498 1497 1497 1497 1496 1496 1496 1495 1495 1494 1494 1493 1492 1491 1490 1488 1486 1484 1482 1480 1479 1476 1473 1470 1467 1463 1460 1457 1454 1452 1450 1448 1446 1444 1441 1439 1438 1437 1436 1435 1434 1432 1430 1427 1424 1422 1420 1418 1416 1415 1414 1413 1413 1414 1415 1416 1418 1421 1425 1429 1433 1436 1440 1444 1447 1449 1451 1454 1456 1458 1460 1462 1464 1466 1468 1469 1470 1471 1473 1474 1476 1478
1498 1498 1497 1497 1497 1497 1496 1496 1496 1496 1496 1495 1495 1494 1494 1493 1492 1492 1490 1489 1487 1485 1483 1481 1479 1477 1474 1472 1468 1465 1461 1458 1455 1453 1451 1449 1447 1446 1444 1442 1440 1439 1437 1436 1435 1433 1431 1428 1425 1422 1419 1416 1414 1412 1410 1409 1408 1408 1408 1409 1411 1413 1416 1419 1424 1428 1432 1436 1439 1442 1445 1448 1450 1452 1454 1457 1459 1461 1463 1465 1467 1469 1470 1472 1474 1476 1478
1496 1496 1496 1496 1496 1496 1496 1496 1496 1495 1495 1495 1494 1493 1493 1492 1492 1491 1489 1488 1486 1484 1482 1480 1478 1476 1473 1470 1466 1463 1460 1457 1455 1453 1451 1449 1448 1446 1445 1443 1441 1440 1438 1437 1435 1433 1431 1428 1424 1421 1417 1413 1410 1407 1406 1404 1403 1403 1403 1404 1406 1409 1412 1415 1420 1425 1429 1432 1435 1439 1442 1444 1447 1450 1452 1454 1457 1459 1461 1463 1466 1468 1470 1473 1475 1476 1478
1495 1495 1495 1495 1495 1495 1495 1495 1495 1495 1495 1494 1493 1493 1492 1492 1491 1490 1489 1487 1485 1484 1482 1479 1477 1475 1472 1469 1466 1462 1459 1456 1454 1453 1451 1450 1449 1448 1446 1444 1443 1441 1440 1438 1437 1434 1432 1428 1425 1420 1416 1411 1408 1405 1403 1401 1400 1400 1400 1402 1403 1406 1410 1413 1418 1422 1427 1430 1432 1435 1438 1441 1444 1448 1451 1453 1456 1458 1460 1463 1465 1468 1471 1473 1475 1476 1478
1494 1494 1494 1494 1494 1494 1494 1495 1495 1495 1494 1493 1493 1492 1492 1491 1490 1489 1488 1486 1485 1483 1481 1479 1477 1475 1472 1469 1466 1462 1459 1457 1455 1453 1452 1451 1450 1449 1447 1445 1444 1443 1442 1440 1438 1436 1433 1430 1426 1421 1416 1412 1407 1404 1402 1400 1400 1400 1401 1402 1404 1406 1410 1414 1418 1422 1425 1428 1430 1433 1436 1439 1443 1446 1449 1452 1455 1457 1460 1463 1466 1469 1471 1473 1475 1476 1478
1493 1493 1493 1493 1493 1494 1494 1494 1494 1494 1493 1493 1493 1492 1491 1491 1490 1489 1488 1486 1485 1483 1481 1479 1477 1475 1472 1469 1466 1463 1460 1458 1456 1455 1454 1453 1451 1450 1448 1447 1446 1445 1443 1442 1440 1437 1435 1432 1429 1424 1420 1414 1410 1406 1404 1402 1402 1402 1403 1405 1407 1409 1412 1416 1419 1422 1425 1428 1431 1434 1437 1440 1443 1446 1449 1452 1455 1458 1461 1464 1467 1469 1471 1473 1475 1476 1477
1492 1492 1492 1493 1493 1494 1494 1494 1494 1493 1493 1493 1492 1492 1491 1490 1489 1488 1487 1486 1484 1483 1481 1479 1477 1475 1472 1470 1467 1464 1461 1459 1458 1457 1455 1454 1452 1451 1450 1449 1448 1446 1444 1443 1441 1440 1438 1435 1432 1429 1424 1419 1414 1411 1408 1406 1405 1406 1407 1408 1410 1413 1415 1418 1421 1424 1427 1430 1433 1435 1438 1441 1444 1447 1450 1453 1457 1460 1463 1465 1468 1469 1471 1473 1474 1475 1476
1491 1491 1492 1492 1493 1493 1493 1493 1493 1493 1493 1492 1492 1491 1491 1490 1489 1488 1487 1485 1484 1483 1481 1479 1477 1475 1473 1470 1468 1466 1464 1462 1460 1458 1457 1455 1454 1452 1452 1451 1449 1447 1446 1445 1444 1442 1440 1438 1436 1433 1429 1425 1421 1418 1415 1413 1411 1411 1411 1412 1414 1416 1418 1421 1424 1426 1429 1432 1434 1437 1440 1443 1447 1450 1453 1456 1459 1461 1464 1466 1468 1470 1471 1473 1474 1475 1476
1491 1491 1492 1492 1492 1493 1493 1493 1493 1492 1492 1492 1491 1491 1490 1489 1488 1487 1486 1485 1483 1482 1481 1479 1477 1475 1473 1471 1469 1467 1466 1464 1462 1460 1458 1457 1456 1454 1453 1451 1450 1449 1448 1447 1447 1445 1444 1442 1440 1437 1434 1431 1429 1427 1425 1422 1420 1419 1419 1419 1421 1422 1424 1426 1428 1431 1433 1436 1439 1442 1445 1448 1450 1453 1456 1459 1461 1463 1465 1467 1468 1470 1471 1472 1473 1474 1475
1490 1491 1491 1492 1492 1492 1492 1492 1492 1492 1492 1491 1491 1491 1490 1489 1488 1487 1485 1484 1483 1482 1481 1479 1478 1476 1474 1473 1471 1469 1467 1466 1464 1462 1460 1459 1458 1456 1455 1453 1453 1452 1451 1451 1449 1448 1447 1446 1444 1441 1439 1437 1435 1434 1433 1431 1430 1428 1428 1428 1429 1430 1431 1433 1435 1437 1439 1441 1444 1446 1449 1452 1454 1456 1458 1460 1462 1464 1466 1467 1468 1470 1471 1472 1473 1474 1475
1490 1490 1490 1491 1491 1491 1491 1492 1492 1492 1491 1491 1491 1490 1490 1489 1487 1486 1485 1484 1483 1482 1481 1479 1478 1476 1475 1474 1472 1471 1469 1468 1467 1465 1463 1461 1460 1459 1458 1456 1456 1455 1454 1453 1452 1451 1450 1449 1447 1445 1444 1443 1441 1440 1439 1438 1437 1436 1436 1436 1437 1438 1439 1440 1441 1443 1445 1446 1448 1450 1452 1454 1456 1458 1460 1461 1463 1465 1466 1467 1468 1470 1471 1472 1473 1474 1475
1489 1489 1490 1490 1490 1490 1491 1491 1491 1491 1491 1491 1490 1490 1489 1488 1487 1486 1485 1483 1482 1482 1481 1480 1478 1477 1475 1474 1473 1472 1471 1470 1469 1467 1466 1464 1462 1461 1460 1459 1458 1458 1457 1456 1454 1454 1453 1451 1450 1449 1448 1447 1446 1445 1444 1443 1443 1442 1442 1442 1443 1443 1444 1445 1446 1448 1449 1450 1452 1453 1455 1456 1458 1459 1461 1462 1464 1465 1466 1467 1469 1470 1471 1472 1473 1474 1475
1488 1489 1489 1489 1489 1490 1490 1490 1490 1490 1490 1490 1490 1490 1489 1488 1487 1486 1485 1483 1483 1482 1481 1480 1479 1478 1476 1475 1475 1474 1472 1471 1470 1469 1467 1465 1464 1463 1462 1462 1461 1461 1459 1458 1457 1456 1455 1454 1453 1452 1452 1451 1450 1449 1449 1448 1448 1447 1447 1447 1447 1448 1449 1449 1450 1451 1452 1453 1454 1455 1457 1458 1459 1460 1462 1463 1464 1465 1466 1468 1469 1470 1471 1472 1473 1474 1474
1487 1487 1488 1488 1489 1489 1489 1489 1490 1490 1490 1490 1490 1489 1489 1488 1487 1486 1485 1484 1483 1482 1481 1480 1479 1478 1478 1477 1475 1474 1473 1472 1471 1470 1469 1467 1466 1466 1465 1465 1464 1463 1462 1461 1460 1458 1457 1456 1456 1455 1455 1454 1454 1453 1452 1452 1451 1451 1451 1451 1451 1452 1452 1453 1453 1454 1455 1456 1457 1458 1459 1460 1461 1462 1463 1464 1465 1466 1467 1468 1469 1470 1471 1472 1472 1473 1473
1486 1486 1487 1487 1487 1488 1488 1489 1489 1489 1489 1489 1489 1489 1489 1488 1487 1487 1486 1484 1483 1482 1481 1481 1480 1479 1478 1477 1476 1475 1474 1473 1472 1471 1470 1469 1469 1468 1467 1467 1466 1465 1465 1463 1462 1460 1459 1459 1458 1458 1457 1457 1456 1456 1455 1455 1455 1454 1454 1454 1455 1455 1455 1455 1456 1457 1457 1458 1459 1460 1461 1462 1463 1464 1464 1465 1466 1467 1468 1469 1470 1470 1471 1471 1472 1472 1473
1485 1485 1485 1486 1486 1487 1487 1487 1488 1488 1488 1489 1489 1489 1488 1488 1488 1487 1486 1485 1484 1483 1482 1481 1480 1480 1479 1478 1477 1476 1475 1474 1473 1473 1472 1471 1470 1469 1469 1468 1468 1467 1466 1466 1464 1463 1462 1461 1461 1460 1459 1459 1458 1458 1458 1457 1457 1457 1457 1457 1457 1457 1457 1458 1458 1459 1460 1461 1461 1462 1463 1464 1464 1465 1466 1467 1467 1468 1468 1469 1470 1470 1471 1471 1471 1472 1472
1483 1484 1484 1484 1485 1485 1486 1486 1487 1487 1488 1488 1488 1488 1488 1488 1488 1487 1486 1486 1485 1484 1483 1482 1481 1480 1480 1479 1478 1477 1476 1475 1475 1474 1473 1472 1471 1470 1470 1470 1469 1468 1468 1467 1466 1465 1464 1463 1463 1462 1462 1461 1460 1460 1459 1459 1459 1459 1459 1459 1459 1459 1460 1460 1460 1461 1462 1463 1463 1464 1465 1465 1466 1466 1467 1467 1468 1468 1469 1469 1469 1470 1470 1471 1471 1471 1472
1482 1482 1482 1483 1483 1484 1485 1485 1486 1486 1486 1487 1487 1487 1487 1487 1487 1487 1487 1486 1485 1484 1484 1483 1482 1481 1480 1479 1479 1478 1477 1477 1476 1475 1474 1473 1473 1472 1472 1471 1470 1469 1469 1468 1467 1466 1466 1465 1465 1464 1464 1463 1463 1462 1461 1461 1461 1461 1461 1461 1461 1461 1462 1462 1463 1463 1464 1464 1465 1465 1466 1466 1467 1467 1467 1468 1468 1468 1468 1469 1469 1469 1470 1470 1470 1471 1471
1480 1480 1481 1481 1482 1482 1483 1484 1484 1485 1485 1485 1485 1486 1486 1487 1487 1487 1486 1486 1485 1485 1485 1484 1483 1482 1482 1481 1480 1479 1478 1477 1477 1476 1475 1475 1474 1474 1473 1472 1472 1471 1470 1469 1469 1468 1467 1467 1466 1466 1465 1465 1464 1464 1463 1463 1463 1463 1463 1463 1463 1463 1463 1464 1464 1465 1465 1465 1466 1466 1467 1467 1467 1467 1468 1468 1468 1469 1469 1469 1469 1469 1470 1470 1470 1471 1471
1478 1478 1479 1480 1480 1480 1481 1482 1483 1483 1483 1484 1484 1485 1485 1485 1486 1486 1486 1486 1485 1485 1485 1485 1484 1483 1483 1482 1481 1480 1479 1478 1478 1477 1476 1476 1476 1475 1474 1474 1473 1472 1472 1471 1470 1469 1469 1468 1468 1467 1467 1467 1466 1466 1465 1465 1465 1465 1465 1464 1464 1464 1465 1465 1465 1465 1466 1466 1467 1467 1467 1467 1467 1468 1468 1468 1469 1469 1469 1469 1470 1470 1470 1471 1471 1471 1471
1476 1476 1477 1478 1478 1478 1479 1480 1480 1481 1482 1482 1483 1484 1484 1484 1484 1484 1485 1485 1485 1485 1485 1485 1485 1484 1484 1483 1482 1481 1480 1480 1479 1478 1478 1477 1477 1476 1476 1475 1474 1474 1473 1473 1472 1471 1471 1470 1469 1469 1468 1468 1468 1467 1467 1467 1467 1466 1466 1466 1466 1466 1466 1466 1467 1467 1467 1467 1467 1468 1468 1468 1468 1469 1469 1469 1469 1469 1470 1470 1470 1470 1471 1471 1471 1471 1472
1474 1475 1475 1476 1476 1477 1477 1478 1478 1479 1480 1481 1481 1482 1482 1482 1483 1483 1483 1484 1484 1484 1484 1485 1485 1485 1484 1484 1483 1482 1482 1481 1480 1479 1479 1479 1478 1478 1477 1477 1476 1475 1475 1474 1474 1473 1472 1472 1471 1470 1470 1469 1469 1469 1468 1468 1468 1468 1468 1467 1468 1468 1468 1468 1468 1468 1468 1468 1468 1469 1469 1469 1470 1470 1470 1470 1470 1471 1471 1471 1471 1471 1472 1472 1472 1472 1472
1472 1473 1473 1474 1474 1475 1475 1476 1477 1477 1478 1479 1479 1480 1480 1481 1481 1482 1482 1482 1482 1483 1483 1484 1484 1484 1484 1484 1483 1483 1482 1482 1481 1480 1480 1480 1479 1479 1479 1478 1478 1477 1476 1476 1475 1475 1474 1473 1473 1472 1471 1471 1470 1470 1470 1469 1469 1469 1469 1469 1469 1469 1469 1469 1469 1470 1470 1470 1470 1470 1471 1471 1471 1471 1472 1472 1472 1472 1472 1473 1473 1473 1473 1473 1474 1474 1473